Location: Hartman Creek State Park
(44.3257°N, 89.2134°W)
Time: 03:05:56
(UTC-05:00)

Cosmos 2263 Rocket - Visible Passes

Search period start: 21 September 2014 00:00
Search period end: 01 October 2014 00:00
Orbit: 826 x 847 km, 71.0° (Epoch: 21 September)

Date Brightness Start Highest point End Pass type
(mag) Time Alt. Az. Time Alt. Az. Time Alt. Az.
21 Sep 4.6 23:06:10 10° N 23:07:37 16° N 23:07:37 16° N visible
22 Sep 4.5 22:49:38 10° N 22:51:10 16° N 22:51:10 16° N visible
23 Sep 4.4 22:33:06 10° N 22:34:45 16° NNE 22:34:45 16° NNE visible
24 Sep 5.0 00:16:14 10° NNW 00:16:26 11° NNW 00:16:26 11° NNW visible
24 Sep 4.4 22:16:35 10° N 22:18:21 16° NNE 22:18:21 16° NNE visible
24 Sep 5.0 23:59:36 10° NNW 00:00:02 12° NNW 00:00:02 12° NNW visible
25 Sep 4.3 22:00:04 10° N 22:01:58 16° NNE 22:01:58 16° NNE visible
25 Sep 4.9 23:42:59 10° NNW 23:43:39 14° NNW 23:43:39 14° NNW visible
26 Sep 4.3 21:43:33 10° N 21:45:36 16° NNE 21:45:36 16° NNE visible
26 Sep 4.8 23:26:21 10° NNW 23:27:17 15° NNW 23:27:17 15° NNW visible
27 Sep 4.2 21:27:03 10° N 21:29:15 15° NNE 21:29:15 15° NNE visible
27 Sep 4.6 23:09:44 10° NNW 23:10:57 17° NNW 23:10:57 17° NNW visible
28 Sep 4.2 21:10:34 10° N 21:12:56 15° NNE 21:12:56 15° NNE visible
28 Sep 4.5 22:53:07 10° NNW 22:54:37 19° NNW 22:54:37 19° NNW visible
29 Sep 4.1 20:54:06 10° N 20:56:38 15° NE 20:56:38 15° NE visible
29 Sep 4.3 22:36:30 10° NNW 22:38:20 21° NNW 22:38:20 21° NNW visible
30 Sep 4.1 20:37:39 10° N 20:40:22 14° NE 20:40:22 14° NE visible
30 Sep 4.1 22:19:54 10° NNW 22:22:03 24° NNW 22:22:03 24° NNW visible
